Location: Krakow
(50.0830°N, 19.9170°E)
Time: 17:42:27
(UTC+01:00)

Vanguard 1 Rocket - Pass Details

Date: 19 December 2023
Orbit: 653 x 4219 km, 34.3° (Epoch: 29 February)

Event Time Altitude Azimuth Distance (km) Brightness Sun altitude
Rises 05:55:37 0° 273° (W) 8,446 - -14.9°
Exits shadow 06:02:08 10° 268° (W) 7,303 11.4 -13.9°
Reaches altitude 10° 06:02:26 10° 267° (W) 7,249 11.4 -13.9°
Maximum altitude 06:21:58 36° 212° (SSW) 4,184 10.7 -11.0°
Drops below altitude 10° 06:34:18 10° 152° (SSE) 4,623 11.9 -9.2°
Sets 06:37:32 0° 143° (SE) 5,210 12.5 -8.7°
